User: anonymous   Login
Location: Daytona Beach
(29.2106°N, 81.0231°W)
Time: 16:57:56
(UTC-05:00)
Language:

FENGYUN 1C DEB - Orbit

View from above orbital plane
View from above orbital plane
View from above satellite
View from above satellite

Ground track
Ground track

The orbit data is extracted from the following two-line orbital elements,

1 30214U 99025VX  22021.16746876  .00001078  00000-0  55321-3 0  9992
2 30214  98.8298  84.2559 0029058 185.8266 238.1200 14.17303000773539
Epoch (UTC): 21 January 2022 04:01:09
Eccentricity: 0.0029058
inclination: 98.8298°
perigee height: 813 km
apogee height: 855 km
right ascension of ascending node: 84.2559°
argument of perigee: 185.8266°
revolutions per day: 14.17303000
mean anomaly at epoch: 238.1200°
orbit number at epoch: 77353

The dashed part of the orbit path shows where the satellite is in the earth's shadow,  

DLR